Regional Weather Roundup
Issued by NWS Green Bay, WI

Home | Current Version | Previous Version | Graphics & Text | Print | Product List | Glossary Off
Versions: 1 2 3 4 5 6 7 8 9 10 11 12 13 14 15 16 17 18 19 20 21 22 23 24 25 26 27 28 29 30 31 32 33 34 35 36 37 38 39 40 41 42 43 44 45 46 47 48 49 50

000
ASUS43 KGRB 012111
RWRGRB

NORTH-CENTRAL AND NORTHEAST WISCONSIN REGIONAL WEATHER ROUNDUP
NATIONAL WEATHER SERVICE GREEN BAY WI
300 PM CST THU DEC 01 2016

WIZ005-009-010>012-018-019-012200-
NORTH CENTRAL WISCONSIN

CITY           SKY/WX    TMP DP  RH WIND       PRES   REMARKS
IRONWOOD       LGT SNOW  30  28  92 NW13      29.81R FOG
MANITOWISH WTR CLOUDY    29  29  97 NW8       29.78R
ARBOR VITAE    CLOUDY    33  28  83 N8        29.77R
EAGLE RIVER    CLOUDY    31  25  77 NW13      29.75R
LAND O LAKES   CLOUDY    31  28  87 NW8       29.77R
RHINELANDER    CLOUDY    34  29  82 NW6       29.77R
PHILLIPS       CLOUDY    31  29  90 NW5       29.79R
ANTIGO         CLOUDY    34  29  80 NW13      29.76R
TOMAHAWK       CLOUDY    33  26  76 W8        29.79R
MERRILL        CLOUDY    35  28  78 NW7       29.79R
$$

WIZ013-073-012200-
NORTHEAST WISCONSIN

CITY           SKY/WX    TMP DP  RH WIND       PRES   REMARKS
IRON MOUNTAIN  CLOUDY    35  25  66 NW13G21   29.73R
MARINETTE      CLOUDY    40  27  59 N9G16     29.75R
OCONTO         CLOUDY    41  30  65 NW6       29.75R
$$

WIZ017-030-035>037-045-012200-
CENTRAL WISCONSIN

CITY           SKY/WX    TMP DP  RH WIND       PRES   REMARKS
MEDFORD        CLOUDY    33  30  90 NW10      29.79R
WAUSAU         CLOUDY    36  30  79 NW10      29.77R
MOSINEE        CLOUDY    36  32  87 W12       29.79R
MARSHFIELD     CLOUDY    35  30  82 NW13      29.80R
WISC RAPIDS    CLOUDY    37  33  85 W10       29.82R
STEVENS POINT  CLOUDY    35  32  88 W8        29.80R
WAUPACA        CLOUDY    40  34  79 W10       29.80R
SHAWANO        CLOUDY    40  34  77 NW7       29.77R
CLINTONVILLE   RAIN      39  32  75 W10       29.77R
WAUTOMA        CLOUDY    39  32  76 W10       29.82R
$$

WIZ038-039-048-051-012200-
FOX VALLEY

CITY           SKY/WX    TMP DP  RH WIND       PRES   REMARKS
NWS GREEN BAY  CLOUDY    42  35  76 W10       29.77R
APPLETON       CLOUDY    37  32  81 W14       29.77R
OSHKOSH        CLOUDY    39  33  79 VRB7      29.80R
FOND DU LAC    CLOUDY    39  33  79 W8        29.81R
$$

WIZ022-050-052-012200-
EAST CENTRAL WISCONSIN

CITY           SKY/WX    TMP DP  RH WIND       PRES   REMARKS
EPHRAIM        CLOUDY    38  29  68 NW7       29.72R
WASHINGTON ISL CLOUDY    38  28  67 NW12G21   29.72R
STURGEON BAY   CLOUDY    40  30  67 NW14      29.75R
MANITOWOC      LGT RAIN  41  34  76 W17       29.77R
SHEBOYGAN      CLOUDY    40  33  76 W12       29.79R
$$

LMZ563-521-522-541>543-012200-
LAKESHORE

STATION/POSITION TIME  TEMP    WIND        PRES    VSBY  WAVE
                       AIR SEA DIR/SP/G                  HT/PER
                 (UTC) (F)     (DEG/KT/KT) (MB)    (MI)  (FT/S)
SHEBOYGAN LKSHOR 2100   41     270/ 16/ 19 1009.0R
KEWAUNEE LKSHORE 2048   40     290/  8/ 12 1007.1R
ALGOMA MARINA    2036          330/  7/ 12   N/A
NORTHPORT PIER   2040   40     300/ 11/ 20 1006.4R
SISTER BAY LKSHO 2038   40     320/ 20/ 26   N/A
CHAMBERS ISLAND  2040   41     300/  7/ 13 1006.8R
MENOMINEE LKSHOR 2048   40     300/  9/ 13 1006.6R
$$




USA.gov is the U.S. government's official web portal to all federal, state and local government web resources and services.